Preview of NWS' New Version of Forecast
This preview is not operational and should not be used for support decisions.
Latest weather observations around

Russellville, Russellville Regional Airport (KRUE)

Using English Units (Switch to International System of Units)
Date/ Time (CST) Wind (mph) Vis. (mi) Weather Sky Cond. Temp (°F) Rel. Humidity Wind Chill (°F) Heat Index (°F) Pressure Precip. (in)
Air Dwpt 6 hour Altimeter (inHg) Sea level (inHg) 1 hr 3 hr 6 hr
Max Min
Feb 25 08:53 Calm 9 Clear CLR 42 41     96%     30.14 30.13      
Feb 25 07:53 Calm 6 Fog/Mist CLR 37 37     100%     30.13 30.12      
Feb 25 06:53 Calm 6 Fog/Mist CLR 35 35     100%     30.1 30.09      
Feb 25 05:53 Calm 6 Fog/Mist CLR 36 35     96%     30.08 30.07      
Feb 25 04:53 Calm 5 Fog/Mist CLR 36 35     96%     30.04 30.03      
Feb 25 03:53 Calm 4 Fog/Mist CLR 37 36     96%     30.03 30.02      
Feb 25 02:53 Calm 7 Clear CLR 38 37     97%     30.04 30.03      
Feb 25 01:53 NW 3 10 Clear CLR 43 39     86% 41   30.04 30.03      
Feb 25 00:53 W 7 10 Clear CLR 44 40     85% 40   30.03 30.02      
Feb 24 23:53 WNW 7 10 Clear CLR 47 41     80% 44   30.01 30      
Feb 24 22:53 W 10 10 Clear CLR 50 44     80% 46   29.98 29.96      
Feb 24 21:53 W 9 10 Clear CLR 50 47     89% 46   29.94 29.93      
Feb 24 20:53 W 11 10 Clear CLR 51 47     86%     29.92 29.9      
Feb 24 19:53   10 Clear CLR 53 48     83%     29.89 29.87      
Feb 24 18:53 WNW 11 10 Mostly Cloudy BKN120 55 52     89%     29.83 29.82      
Feb 24 18:13 W 9 10 Partly Cloudy SCT015 56 53     90%     29.8        
Feb 24 18:05 W 11 10 Mostly Cloudy BKN015 56 53     90%     29.79        
Feb 24 17:53 W 14 10 Mostly Cloudy SCT016 SCT021 BKN110 57 54     89%     29.78 29.77     1
Feb 24 16:53 W 15 10 Cloudy SCT019 SCT023 OVC120 60 57     90%     29.73 29.72      
Feb 24 16:05 WSW 6 10 Cloudy BKN023 BKN090 OVC110 60 60     100%     29.71        
Feb 24 15:53 WSW 5 10 Cloudy SCT023 SCT037 OVC100 60 60     100%     29.71 29.69 0    
Feb 24 15:30 WNW 6 4 Rain and Fog/Mist FEW021 BKN075 OVC095 61 60     97%     29.68   0    
Feb 24 14:59 W 10 2 Heavy Rain and Fog/Mist BKN032 61 61     100%     29.71   0    
Feb 24 14:53 WNW 10 1 Heavy Rain and Fog/Mist FEW015 BKN022 OVC027 61 61     100%     29.7 29.69 1 1  
Feb 24 14:31 NW 13 1.75 Thunderstorms and Heavy Rain and Fog/Mist FEW006 BKN025 OVC032 61 61     100%     29.69   0    
Feb 24 14:24 NW 9 3 Thunderstorms and Rain and Fog/Mist FEW006 BKN023 OVC055 62 62     100%     29.7   0    
Feb 24 14:16 Calm 4 Rain and Fog/Mist BKN026 BKN048 OVC110 62 62     100%     29.67   0    
Feb 24 13:53 3 7 Thunderstorms and Rain SCT029 BKN048 OVC110 62 62     100%     29.68 29.67 0    
Feb 24 13:40 7 4 Thunderstorms and Heavy Rain and Fog/Mist FEW022 BKN027 OVC055 62 62     100%     29.68   0    
Feb 24 13:28 ESE 6 10 Cloudy FEW009 BKN031 OVC050 61 61     100%     29.68   0    
Feb 24 13:23 5 10 Cloudy SCT010 BKN023 OVC032 61 61     100%     29.68   0    
Feb 24 12:53 Calm 10 Cloudy OVC012 61 61     100%     29.73 29.71 0    
Feb 24 12:40 Calm 10 Light Rain BKN012 OVC018 61 61     100%     29.72   0    
Feb 24 12:08 ESE 3 5 Light Rain and Fog/Mist BKN024 OVC029 59 59     100%     29.76   0    
Feb 24 12:00 NNE 5 2.5 Light Rain and Fog/Mist FEW015 BKN026 OVC032 57 57     100%     29.77   0    
Feb 24 11:53 3 2 Heavy Rain and Fog/Mist SCT024 BKN029 OVC036 56 56     100%     29.79 29.78 0   0
Feb 24 11:51 SSE 3 2 Rain and Fog/Mist SCT024 OVC034 55 55     100%     29.8   0    
Feb 24 11:36 Calm 1 Heavy Rain and Fog/Mist SCT028 BKN039 OVC090 55 55     100%     29.81   0    
Feb 24 11:26 Calm 2.5 Rain and Fog/Mist FEW004 BKN030 OVC070 55 55     100%     29.82   0    
Feb 24 11:24 SW 7 3 Light Rain and Fog/Mist FEW002 BKN032 OVC070 55 55     100%     29.83   0    
Feb 24 11:18 Calm 2.5 Rain and Fog/Mist SCT015 BKN034 OVC080 55 55     100%     29.8   0    
Feb 24 11:11 NNE 6 1 Thunderstorms and Rain and Fog/Mist FEW002 BKN021 OVC075 55 55     100%     29.8   0    
Feb 24 11:05 Calm 0.5 Thunderstorms and Heavy Rain and Fog BKN003 BKN015 OVC075 55 55     100%     29.82   0    
Feb 24 10:53 Calm 0.75 Heavy Rain and Fog/Mist BKN002 BKN021 OVC032 55 55     100%     29.83 29.81 0    
Feb 24 10:26 Calm 1.25 Light Rain and Fog/Mist BKN002 OVC008 54 54     100%     29.84   0    
Feb 24 10:11 Calm 2 Light Rain and Fog/Mist BKN002 OVC011 56 56     100%     29.85   0    
Feb 24 09:53 NNW 5 1.75 Fog/Mist OVC002 55 55     100%     29.86 29.85      
Feb 24 09:37 NNW 3 4 Fog/Mist OVC002 56 56     100%     29.89        
Feb 24 09:24 Calm 2 Fog/Mist OVC002 55 55     100%     29.89        
Feb 24 09:15 Calm 1.75 Fog/Mist OVC002 55 55     100%     29.89        
Feb 24 08:53 Calm 0.5 Fog VV003 54 54     100%     29.89 29.88 0 0  
Feb 24 08:35 Calm 0.75 Fog/Mist VV003 54 54     100%     29.92        
Feb 24 07:53 WNW 3 1 Fog/Mist OVC002 53 53     100%     29.92 29.91      
Feb 24 07:41 Calm 1 Fog/Mist BKN004 OVC007 54 54     100%     29.92        
Feb 24 07:04 Calm 0.5 Fog VV003 53 53     100%     29.94        
Feb 24 06:53 Calm 1 Fog/Mist OVC003 52 52     100%     29.95 29.93      
Feb 24 06:20 Calm 1.5 Fog/Mist OVC002 53 53     100%     29.95        
Feb 24 06:12 Calm 2 Fog/Mist OVC002 53 53     100%     29.96        
Feb 24 06:00 Calm 1.5 Fog/Mist   53 53     100%     29.95        
Feb 24 05:53 Calm 2 Fog/Mist   53 53     100%     29.96 29.94      
Feb 24 04:53 Calm 8 Cloudy OVC003 54 54     100%     29.93 29.92      
Feb 24 04:01 Calm 4 Fog/Mist OVC002 52 52     100%     29.94        
Feb 24 03:53 Calm 2.5 Fog/Mist OVC002 52 52     100%     29.94 29.93      
Feb 24 02:53 ESE 7 2.5 Fog/Mist OVC002 51 51     100%     29.95 29.94      
Feb 24 02:46 ESE 7 3 Fog/Mist OVC002 51 51     100%     29.96        
Feb 24 02:38 ESE 5 2.5 Fog/Mist OVC002 51 51     100%     29.97        
Feb 24 01:53 ESE 6 6 Fog/Mist OVC003 51 51     100%     29.99 29.98      
Feb 24 00:53 3 6 Fog/Mist OVC004 51 51     100%     30.02 30.01      
Feb 24 00:36 ESE 8 5 Fog/Mist OVC004 51 51     100%     30.01        
Feb 23 23:53 ESE 8 10 Cloudy BKN006 OVC011 51 50     96%     30.04 30.03     0
Feb 23 23:49 ESE 8 10 Cloudy BKN009 OVC013 52 50     94%     30.04        
Feb 23 23:32   10 Cloudy OVC013 51 50     96%     30.05        
Feb 23 23:20 6 10 Cloudy SCT007 OVC015 51 50     96%     30.06        
Feb 23 22:53 7 10 Cloudy BKN007 OVC019 51 51     100%     30.07 30.06      
Feb 23 22:50 ESE 9 10 Cloudy OVC007 52 52     100%     30.07        
Feb 23 22:40 ESE 8 10 Cloudy OVC005 52 51     97%     30.08        
Feb 23 21:53 E 7 7 Cloudy OVC002 52 52     100%     30.1 30.09      
Feb 23 21:06 E 5 4 Fog/Mist OVC002 52 52     100%     30.11        
Feb 23 20:53 ESE 7 2.5 Fog/Mist OVC002 52 52     100%     30.11 30.1   0  
Feb 23 19:53 E 7 10 Cloudy OVC003 52 52     100%     30.12 30.11      
Feb 23 19:35 ESE 8 5 Fog/Mist OVC002 52 52     100%     30.13        
Feb 23 19:25 E 5 2.5 Fog/Mist OVC002 52 52     100%     30.13        
Feb 23 18:53 ESE 6 9 Cloudy OVC004 53 53     100%     30.13 30.12 0    
Feb 23 18:42 ESE 5 10 Cloudy BKN006 BKN048 OVC110 52 52     100%     30.14   0    
Feb 23 17:53 Calm 10 Cloudy BKN007 OVC042 52 52     100%     30.16 30.15 0   1
Feb 23 17:45 Calm 8 Light Rain BKN006 OVC044 52 52     100%     30.16   0    
Feb 23 17:31 SW 5 10 Cloudy FEW006 OVC046 52 52     100%     30.17        
Feb 23 16:53 Calm 10 Cloudy OVC055 53 53     100%     30.16 30.15 0    
Feb 23 16:08 Calm 3 Rain and Fog/Mist FEW006 OVC060 52 52     100%     30.19   0    
Feb 23 15:53 3 2.5 Heavy Rain and Fog/Mist FEW004 OVC060 52 52     100%     30.19 30.18 0    
Feb 23 15:44 Calm 2 Heavy Rain and Fog/Mist BKN049 OVC070 52 52     100%     30.2   0    
Feb 23 15:23 ESE 3 1 Heavy Rain and Fog/Mist FEW005 BKN037 OVC047 52 52     100%     30.2   0    
Feb 23 15:12 Calm 1.25 Heavy Rain and Fog/Mist SCT005 BKN029 OVC047 52 52     100%     30.22   0    
Feb 23 15:05 S 3 0.75 Heavy Rain and Fog/Mist FEW006 BKN031 OVC050 52 52     100%     30.22   0    
Feb 23 14:55 Calm 1.75 Heavy Rain and Fog/Mist FEW006 SCT033 OVC050 52 52     100%     30.22   0    
Feb 23 14:53 Calm 3 Rain and Fog/Mist FEW006 SCT033 OVC050 52 52     100%     30.22 30.21 0 0  
Feb 23 14:46 Calm 4 Light Rain and Fog/Mist FEW010 SCT014 OVC050 52 52     100%     30.22   0    
Feb 23 14:35 NE 7 2.5 Rain and Fog/Mist FEW009 SCT033 OVC048 52 52     100%     30.2   0    
Feb 23 14:27 NE 3 2.5 Rain and Fog/Mist BKN009 BKN028 OVC046 52 51     97%     30.22   0    
Feb 23 14:16 Calm 3 Light Rain and Fog/Mist SCT007 BKN041 OVC060 51 51     100%     30.22   0    
Feb 23 14:09 NNW 6 2.5 Rain and Fog/Mist FEW004 BKN007 OVC029 51 51     100%     30.22   0    
Feb 23 14:01 NW 6 4 Light Rain and Fog/Mist SCT005 OVC010 51 51     100%     30.23   0    
Feb 23 13:53 NW 8 3 Light Rain and Fog/Mist BKN005 BKN010 OVC016 51 51     100%     30.23 30.22 0    
Feb 23 13:47 NW 6 2.5 Rain and Fog/Mist BKN005 OVC016 52 52     100%     30.23   0    
Feb 23 12:53 Calm 10 Cloudy FEW005 OVC016 51 51     100%     30.24 30.23 0    
Feb 23 12:30 Calm 6 Light Rain and Fog/Mist SCT005 BKN015 OVC090 51 50     96%     30.23   0    
Feb 23 12:01 3 9 Light Rain FEW005 SCT017 OVC090 50 50     100% 49   30.24   0    
Feb 23 11:53 SE 5 9 Cloudy FEW005 BKN017 OVC100 50 50     100% 48   30.25 30.24 0   0
Feb 23 10:53 Calm 10 Cloudy SCT004 BKN020 OVC110 49 48     97%     30.28 30.27 0    
Feb 23 10:17 W 3 7 Cloudy SCT004 OVC020 48 48     100% 47   30.31   0    
Feb 23 09:53 SE 3 6 Fog/Mist BKN004 OVC020 48 48     100% 47   30.29 30.28      
Feb 23 08:53 Calm 7 Cloudy OVC004 48 47     96%     30.26 30.25 0 0  
Feb 23 07:53 E 3 4 Light Rain and Fog/Mist OVC004 47 47     100% 46   30.24 30.23 0    
Feb 23 07:02 WNW 5 8 Cloudy BKN004 OVC019 47 47     100% 45   30.29        
Feb 23 06:53 WNW 7 9 Cloudy SCT005 OVC020 47 47     100% 44   30.29 30.28      
Feb 23 06:48 WNW 5 10 Cloudy SCT005 OVC020 46 46     100% 44   30.28        
Feb 23 05:53 NNW 5 10 Cloudy BKN005 OVC019 47 47     100% 45   30.24 30.23     0
Feb 23 05:28 NW 7 10 Cloudy BKN004 OVC019 47 47     100% 44   30.23        
Feb 23 05:04 NW 3 10 Cloudy FEW006 OVC019 47 47     100% 46   30.23        
Feb 23 04:53 NNW 3 10 Cloudy OVC020 47 47     100% 46   30.23 30.22 0    
Feb 23 04:37 W 5 9 Light Rain SCT003 OVC021 47 47     100% 45   30.23   0    
Feb 23 04:20 Calm 7 Light Rain BKN003 OVC021 47 47     100%     30.22   0    
Feb 23 03:53 WNW 3 10 Cloudy SCT003 BKN023 OVC100 47 47     100% 46   30.2 30.19 0    
Feb 23 03:48 3 10 Light Rain FEW003 BKN025 OVC100 46 46     100% 45   30.2   0    
Feb 23 03:07 N 6 4 Rain and Fog/Mist SCT026 SCT060 OVC080 47 47     100% 44   30.2   0    
Feb 23 02:53 N 5 6 Rain and Fog/Mist FEW004 BKN026 OVC080 47 47     100% 45   30.21 30.2 0 0  
Feb 23 02:51 N 3 7 Rain FEW004 SCT008 OVC026 46 46     100% 45   30.21   0    
Feb 23 02:44 N 3 6 Light Rain and Fog/Mist SCT004 BKN008 OVC026 47 47     100% 46   30.21   0    
Feb 23 02:22 Calm 10 Cloudy OVC006 47 47     100%     30.22        
Feb 23 01:53 SE 3 10 Cloudy OVC008 47 47     100% 46   30.21 30.2 0    
Feb 23 01:43 Calm 9 Light Rain BKN006 OVC010 47 47     100%     30.21   0    
Feb 23 00:53 Calm 7 Light Rain OVC003 47 47     100%     30.2 30.19 0    
Feb 22 23:53 Calm 4 Rain and Fog/Mist BKN004 OVC036 47 47     100%     30.21 30.21 0   1
Feb 22 23:43 Calm 5 Rain and Fog/Mist BKN003 OVC035 47        %     30.22   0    
Feb 22 22:59 Calm 5 Rain and Fog/Mist SCT004 BKN034 OVC042 46 46     100%     30.23   0    
Feb 22 22:53 Calm 4 Light Rain and Fog/Mist SCT004 BKN007 OVC047 47 47     100%     30.23 30.22 0    
Feb 22 22:48 Calm 2 Heavy Rain and Fog/Mist BKN004 BKN015 OVC045 46 46     100%     30.23   0    
Feb 22 22:13 Calm 5 Fog/Mist BKN004 OVC010 46 46     100%     30.24        
Feb 22 21:53 Calm 10 Cloudy BKN009 OVC014 46 46     100%     30.23 30.22 0    
Feb 22 21:43 Calm 10 Cloudy BKN012 BKN017 OVC023 46 46     100%     30.23   0    
Feb 22 21:33 Calm 10 Light Rain FEW007 BKN016 OVC023 46 46     100%     30.23   0    
Feb 22 21:06 SSE 5 7 Light Rain FEW005 BKN017 OVC024 46 46     100% 44   30.23   0    
Feb 22 20:53 3 2.5 Heavy Rain and Fog/Mist SCT005 OVC018 46 46     100% 45   30.21 30.21 0 0  
Feb 22 20:45 3 10 Cloudy SCT005 OVC018 46 46     100% 45   30.23   0    
Feb 22 20:18 Calm 4 Light Rain and Fog/Mist BKN006 OVC010 46 46     100%     30.21   0    
Feb 22 20:11 3 2.5 Thunderstorms and Heavy Rain and Fog/Mist BKN006 OVC010 46 46     100% 45   30.2   0    
Feb 22 20:09 5 3 Thunderstorms and Heavy Rain and Fog/Mist OVC008 46 46     100% 44   30.2   0    
Feb 22 19:53 E 5 4 Rain and Fog/Mist OVC007 46 45     96% 44   30.2 30.19 0    
Feb 22 19:46 ESE 6 4 Heavy Rain and Fog/Mist OVC007 45 45     100% 42   30.2   0    
Feb 22 18:53 ESE 5 4 Rain and Fog/Mist OVC005 45 45     100% 43   30.19 30.19 0    
Feb 22 17:53 Calm 10 Light Rain OVC005 45 45     100%     30.23 30.22 0   1
Feb 22 17:50 Calm 10 Light Rain OVC005 45 45     100%     30.22   0    
Feb 22 17:43 S 8 10 Light Rain BKN004 OVC100 45 45     100% 41   30.21   0    
Feb 22 17:16 ESE 13 4 Rain and Fog/Mist SCT006 BKN050 OVC100 45 44     97% 39   30.17   0    
Feb 22 17:02 SE 8 3 Heavy Rain and Fog/Mist BKN006 BKN029 OVC100 45 44     97% 41   30.22   0    
Feb 22 16:53 5 9 Light Rain FEW007 BKN075 OVC100 45 44     97% 43   30.22 30.22 0    
Feb 22 16:25 ESE 11 7 Light Rain SCT007 BKN090 OVC110 44 44     100% 38   30.17   0    
Feb 22 16:03 E 7 5 Rain and Fog/Mist BKN008 OVC100 44 44     100% 40   30.21   0    
Feb 22 15:53 S 6 8 Rain BKN006 OVC100 44 43     96% 41   30.25 30.24 0    
Feb 22 15:28 ESE 7 9 Light Rain FEW004 BKN080 OVC110 44 44     100% 40   30.21   0    
Feb 22 15:11 ENE 9 3 Heavy Rain and Fog/Mist FEW010 BKN043 OVC085 43 43     100% 38   30.23   0    
Feb 22 15:04 ENE 6 1.75 Heavy Rain and Fog/Mist SCT010 BKN045 OVC080 43 43     100% 39   30.26   0    
Feb 22 14:53 Calm 1.25 Heavy Rain and Fog/Mist BKN010 BKN019 OVC028 44 43     96%     30.29 30.28 0 0  
Feb 22 14:50 Calm 1.75 Heavy Rain and Fog/Mist BKN010 OVC019 45 43     93%     30.29   0    
Feb 22 14:33 NE 3 9 Rain BKN010 OVC020 44 42     93% 43   30.3   0    
Feb 22 13:53 NNE 6 10 Cloudy BKN008 OVC024 45 42     90% 42   30.28 30.27      
Feb 22 12:53 E 5 10 Cloudy OVC008 43 41     93% 40   30.33 30.32      
Feb 22 11:53 E 5 10 Cloudy OVC007 43 41     93% 40   30.34 30.34      
Feb 22 11:25 SE 7 10 Cloudy OVC007 43 41     93% 39   30.34        
Feb 22 11:05 E 7 10 Cloudy OVC006 42 41     96% 38   30.33        
Feb 22 10:53 ENE 6 10 Cloudy OVC007 42 41     96% 38   30.34 30.34      
Feb 22 10:06 SE 7 10 Cloudy OVC007 41 39     93% 36   30.36        
Feb 22 09:53   10 Cloudy OVC006 42 40     92%     30.36 30.35      
Feb 22 09:44 3 10 Cloudy OVC006 41 40     96% 39   30.35        
Feb 22 08:53 E 5 10 Cloudy BKN007 OVC013 41 39     93% 38   30.34 30.33      
Jun 12 05:53 SSE 3 10 Clear CLR 71 69     93%   72 29.98 29.96      
Jun 11 01:53 5 10 Clear   72 64     76%   72 29.96 29.94      
Jun 10 16:53 S 8 10 Cloudy FEW047 OVC060 83 66     57%   85 29.91 29.89      
Jun 09 15:53 SSW 5 10 Clear CLR 80 56     44%   80 29.92 29.9      
Jun 08 07:53 Calm 10 Clear CLR 64 57     78%     30.04 30.02      
Jun 07 10:53 NNE 6 10 Clear CLR 77 56     48%   77 30.02 29.99      
Jun 06 06:42 Calm 1.5 Fog/Mist OVC002 68 67     96%     29.85        
Jun 06 04:53 Calm 9 Clear CLR 67 66     97%     29.83 29.81      
Jun 06 02:53 Calm 6 Fog/Mist CLR 68 67     96%     29.82 29.8      
Jun 06 01:22 WNW 3 1.5 Fog/Mist FEW002 68 67     96%     29.81        
Jun 05 23:18 Calm 2.5 Fog/Mist CLR 69 68     96%     29.82        
Jun 05 19:53 Calm 10 Clear CLR 74 71     91%   75 29.78 29.75      
Jun 05 15:00 ENE 8 1.75 Heavy Rain and Fog/Mist FEW029 BKN080 BKN090 75 71     88%   76 29.77   0